Location: Sortland
(68.7020°N, 15.4240°E)
Time: 11:57:10
(UTC+01:00)

Envisat - Pass Details

Date: 23 October 2019
Orbit: 764 x 766 km, 98.1° (Epoch: 14 November)

Event Time Altitude Azimuth Distance (km) Brightness Sun altitude
Rises 06:14:59 0° 15° (NNE) 3,250 6.5 -13.0°
Reaches altitude 10° 06:18:06 10° 35° (NE) 2,319 6.0 -12.7°
Maximum altitude 06:21:28 17° 77° (ENE) 1,851 6.1 -12.4°
Drops below altitude 10° 06:24:50 10° 118° (ESE) 2,310 6.5 -12.1°
Sets 06:27:55 0° 138° (SE) 3,232 6.9 -11.9°
